Regional Weather Roundup
Issued by NWS Albany, NY

Home | Current Version | Previous Version | Text Only | Print | Product List | Glossary On
Versions: 1 2 3 4 5 6 7 8 9 10 11 12 13 14 15 16 17 18 19 20 21 22 23 24 25 26 27 28 29 30 31 32 33 34 35 36 37 38 39 40 41 42 43 44 45 46 47 48
000
ASUS41 KALY 272210
RWRALY

NEW YORK STATE HOURLY WEATHER ROUNDUP
NATIONAL WEATHER SERVICE ALBANY NY
500 PM EST SAT DEC 27 2014

NOTE: "FAIR" INDICATES FEW OR NO CLOUDS BELOW 12,000 FEET WITH NO
SIGNIFICANT WEATHER AND/OR NO OBSTRUCTIONS TO VISIBILITY.

NYZ032-033-038>043-046>054-057>066-NYZ062>081-272300-
EAST


CITY           SKY/WX    TMP DP  RH WIND       PRES   REMARKS
ALBANY         MOCLDY    46  32  58 S7        30.09F
GLENS FALLS    MOCLDY    39  31  72 NW3       30.09F
POUGHKEEPSIE   PTCLDY    49  34  56 S3        30.13F
NEWBURGH       PTCLDY    48  37  66 CALM      30.15S
MONTGOMERY     PTCLDY    45  35  68 SW3       30.12F
WHITE PLAINS   CLEAR     45  34  65 CALM      30.15S
ISLIP          MOCLDY    45  35  68 SW3       30.17R
NEW YORK CITY  MOCLDY    50  34  54 S9        30.16F
CENTRAL PARK   CLEAR     51  34  52 S8        30.18F
$$

NYZ005>009-017-018-044>046-055-056-272300-
CENTRAL


CITY           SKY/WX    TMP DP  RH WIND       PRES   REMARKS
FULTON         MOCLDY    51  37  58 S10       30.00F
SYRACUSE       MOCLDY    52  37  56 S8        30.02S
ROME           CLOUDY    48  37  65 SE7       30.05F
ELMIRA         PTCLDY    49  37  63 SW3       30.05F
BINGHAMTON     MOCLDY    45  34  65 S7        30.06F
MONTICELLO     MOCLDY    45  34  65 CALM      30.13S
$$

NYZ026>034-041>043-272300-
NORTH


CITY           SKY/WX    TMP DP  RH WIND       PRES   REMARKS
WATERTOWN      CLOUDY    51  35  54 S7        29.97F
FORT DRUM      NOT AVBL
MASSENA        CLOUDY    42  34  73 CALM      29.99F
SARANAC LAKE   CLOUDY    39  34  82 SW7       29.98F WCI  34
PLATTSBURGH    CLOUDY    41  33  73 CALM      30.03F
$$

NYZ001>004-010>016-019>021-272300-
WEST


CITY           SKY/WX    TMP DP  RH WIND       PRES   REMARKS
NIAGARA FALLS  MOCLDY    52  40  63 SW18      29.94R
BUFFALO        CLOUDY    53  39  59 SW14      29.95S
DUNKIRK        CLOUDY    55  39  54 SW13G24   29.98R
JAMESTOWN      CLOUDY    50  36  57 S12G18    30.01R
WELLSVILLE     CLEAR     47  36  65 VRB6      30.01F
ROCHESTER      MOCLDY    52  39  61 S9        29.97F
PENN YAN       CLEAR     51  38  60 S14       30.00F
$$

             KEY
       WCI = WIND CHILL INDEX
       VSB = VISIBILITY
       HX  = HEAT INDEX
$$



USA.gov is the U.S. government's official web portal to all federal, state and local government web resources and services.